Location: Copponex
(46.0515°N, 6.0729°E)
Time: 11:39:48
(UTC+00:00)

Daily predictions for brighter satellites

Satellite Brightness Start Highest point End
(mag) Time Altitude Azimuth Time Altitude Azimuth Time Altitude Azimuth
Cosmos 676 Rocket 4.2 19:58:05 10° NNW 20:03:24 79° WSW 20:08:39 10° SSE
ATLAS 5 CENTAUR R/B 3.6 19:51:49 10° NW 20:05:49 67° WSW 20:09:52 10° SSE
Tiangong 3.3 20:05:05 10° WSW 20:06:56 15° SSW 20:08:48 10° SSE
Cosmos 2315 Rocket 4.1 20:01:35 10° S 20:07:55 89° W 20:14:14 10° N
SPOT 3 Rocket 4.0 20:06:23 10° SE 20:11:23 49° ENE 20:16:25 10° N
Ariane Rocket 3.1 20:07:49 10° SSE 20:12:55 77° ENE 20:18:01 10° NNW
Cosmos 2074 Rocket 4.4 20:07:03 10° N 20:13:07 47° ENE 20:19:05 10° SSE
Cosmos 1544 Rocket 3.6 20:15:35 10° N 20:19:56 85° WSW 20:24:17 10° S
Lacrosse 5 rocket 3.6 20:18:53 10° W 20:21:14 16° SW 20:23:39 10° SSW
Cosmos 1656 3.7 20:16:58 10° NNW 20:22:29 88° ENE 20:28:02 10° SSE
GEOS 3 Rocket 4.0 20:17:55 10° SSE 20:22:57 59° SW 20:28:01 10° NW
ATLAS 2AS CENTAUR R/B 3.3 20:22:08 10° NW 20:28:55 51° WSW 20:35:16 10° SSE
MetOp-B 4.2 20:24:51 10° SSE 20:30:12 89° W 20:35:36 10° NNW
Cosmos 1850 Rocket 4.0 20:26:11 10° NNW 20:31:25 74° ENE 20:36:20 11° SSE
Cosmos 1980 Rocket 3.4 20:28:58 10° N 20:34:03 32° NE 20:39:04 10° ESE
Cosmos 1697 Rocket 3.0 20:29:01 10° NNW 20:34:33 56° ENE 20:39:32 13° SE
USA 32 4.2 20:29:32 10° S 20:34:44 76° W 20:39:59 10° N
SL-8 R/B 3.7 20:32:03 10° WNW 20:36:52 77° SSW 20:41:22 12° ESE
Cosmos 1331 Rocket 4.3 20:32:29 10° S 20:37:34 49° ESE 20:42:40 10° NNE
SPOT 1/Viking Rocket 4.3 20:35:39 10° S 20:40:39 52° W 20:45:43 10° NNW
COSMOS 2406 3.8 20:37:38 10° S 20:42:53 38° ESE 20:48:08 10° NE
Spot 2 Rocket 3.7 20:38:47 12° SSE 20:43:25 62° ENE 20:48:29 10° N
Cosmos 2154 Rocket 4.2 20:38:38 10° N 20:44:46 58° ENE 20:50:11 13° SSE
X-37B 0.4 20:42:17 10° W 20:45:03 57° S 20:47:01 17° ESE
CZ-2C R/B 4.3 20:44:11 10° NNE 20:48:27 39° E 20:51:58 14° SSE
SPOT 5 2.6 20:49:45 14° SSE 20:53:25 73° ENE 20:57:44 10° N
Cosmos 1703 3.2 20:51:53 10° S 20:55:44 86° W 20:59:36 10° N
Cosmos 2084 Rocket 3.7 20:53:17 10° NNW 20:57:07 53° NE 21:00:03 17° ESE
RESURS DK-1 2.7 20:54:04 10° NW 20:58:09 59° WSW 21:01:19 16° S
Cosmos 1452 Rocket 3.9 20:53:28 10° SSW 20:58:42 67° WNW 21:03:57 10° NNE
Cosmos 1833 Rocket 2.6 20:53:18 10° SSW 20:58:53 82° ESE 21:04:32 10° NNE
Terra 2.0 20:56:28 17° SSE 21:00:05 59° ENE 21:04:47 10° N
CZ-4B R/B 3.5 20:59:50 10° NNW 21:02:11 23° WNW 21:04:32 10° SW
Cosmos 967 Rocket 4.5 20:57:21 10° SSW 21:03:48 75° ESE 21:10:16 10° NE
Helios 1A Rocket 2.9 21:01:06 17° SSE 21:04:12 87° ENE 21:08:19 10° NNW
Cosmos 1110 Rocket 4.0 20:59:24 10° SSW 21:04:39 90° NNE 21:10:00 10° NNE
ERS-1 Rocket 3.0 21:02:34 16° SSE 21:06:38 85° ENE 21:11:42 10° NNW
Cosmos 1892 Rocket 4.2 21:04:14 19° SSE 21:06:48 37° E 21:10:51 10° NNE
Resurs 01 Rocket 3.8 21:03:57 10° SW 21:07:23 22° W 21:10:52 10° NW
Cosmos 1302 Rocket 4.4 21:03:52 14° S 21:08:01 44° ESE 21:12:56 10° NNE
Cosmos 2322 Rocket 4.4 21:05:28 10° N 21:08:46 15° NE 21:12:05 10° ENE
Cosmos 2228 3.1 21:07:46 10° NNW 21:12:00 72° W 21:15:15 16° S
Cosmos 2058 Rocket 4.0 21:08:52 10° N 21:12:57 34° ENE 21:15:19 20° SE
Cosmos 1825 4.1 21:15:03 15° E 21:15:47 15° E 21:18:00 10° NE
Cosmos 2184 Rocket 4.3 21:09:51 10° NNW 21:15:57 64° W 21:21:54 11° S
Cosmos 1408 3.4 21:16:14 25° SE 21:17:18 30° E 21:20:22 10° NNE
Lacrosse 5 4.0 21:15:30 10° W 21:18:26 15° WSW 21:21:22 10° SSW
Cosmos 968 Rocket 3.6 21:18:09 10° NNW 21:23:21 65° ENE 21:26:36 23° SE
Cosmos 1328 3.7 21:22:05 18° S 21:24:59 86° E 21:29:00 10° N
USA 276 3.4 21:25:05 10° WNW 21:27:57 37° N 21:30:49 10° ENE
SJ 16-02 3.7 21:30:08 10° NNE 21:32:20 13° NE 21:34:31 10° E
Cosmos 2082 Rocket 2.2 21:27:22 12° SSW 21:32:42 65° ESE 21:38:21 10° NNE
Cosmos 1867 3.7 21:27:37 10° NNW 21:33:06 71° NE 21:36:30 23° SE
ASTRO F (AKARI) 4.4 21:32:26 32° SSE 21:33:58 84° ENE 21:37:29 10° NNW
USA 267 3.6 21:31:14 10° ENE 21:37:22 42° SE 21:43:29 10° SSW
ARIANE 5 R/B 2.6 21:35:43 25° S 21:38:17 80° WSW 21:42:43 10° NNW
Cosmos 1606 Rocket 4.0 21:36:27 10° NNW 21:40:41 55° W 21:43:24 21° SSW
GP-B 3.4 21:37:20 10° N 21:41:41 52° E 21:43:35 30° SSE
Cosmos 2341 Rocket 4.0 21:36:49 10° N 21:43:10 75° E 21:47:01 25° SSE
Cosmos 2360 Rocket 4.3 21:41:05 10° N 21:44:56 18° NE 21:48:44 10° E
SAR-Lupe-4 3.9 21:42:26 10° NNE 21:45:55 47° E 21:46:46 38° SE
Cosmos 192 4.5 21:43:00 10° SSW 21:47:54 73° WNW 21:52:48 10° NNE
Okean 1-7 Rocket 3.8 21:58:40 35° SSE 22:00:14 54° E 22:04:37 10° NNE
SAR-Lupe-1 3.9 21:58:55 10° NNE 22:02:30 89° ESE 22:03:39 41° SSW
Cosmos 1726 Rocket 4.5 21:59:18 10° NNW 22:03:22 41° W 22:05:41 22° SSW
Cosmos 1892 2.6 22:02:06 36° SSW 22:03:31 80° W 22:07:18 10° N
Cosmos 2181 Rocket 3.9 22:07:21 27° S 22:10:56 81° E 22:17:12 10° N
USA 234 3.9 22:05:32 10° ESE 22:11:54 56° NNE 22:18:17 10° NW
Cosmos 1633 3.5 22:12:09 31° E 22:12:11 31° E 22:15:17 10° NNE
Cosmos 1992 Rocket 3.9 22:15:18 29° SSW 22:18:02 80° ESE 22:23:18 10° NNE
Cosmos 1697 Rocket 4.3 22:13:42 10° NW 22:18:07 24° WSW 22:21:16 15° SW
Cosmos 1980 Rocket 2.8 22:12:48 10° NW 22:18:15 48° WSW 22:20:52 28° SSW
SL-16 R/B 2.7 22:12:50 10° NNW 22:18:24 52° ENE 22:21:23 26° ESE
Cosmos 1821 Rocket 4.5 22:12:25 10° N 22:18:27 48° ENE 22:21:23 28° SE
Cosmos 1486 Rocket 3.9 22:13:40 10° NNW 22:18:55 86° ENE 22:21:05 37° SSE
Cosmos 1932 4.4 22:13:46 10° SW 22:20:00 88° NW 22:26:23 10° NE
X-37B 3.1 22:18:07 10° WSW 22:18:13 11° WSW 22:18:13 11° WSW
Cosmos 1812 Rocket 4.1 22:16:30 10° N 22:20:50 49° ENE 22:22:08 37° SE
Cosmos-2242 3.5 22:26:03 10° N 22:30:11 47° ENE 22:31:12 39° ESE
ATLAS 5 CENTAUR R/B 1.2 22:29:23 34° SW 22:30:54 80° NW 22:35:04 10° NE
Cosmos 1602 Rocket 3.5 22:32:11 49° SSE 22:33:12 68° E 22:37:30 10° NNE
In-Cosmos 22 Rocket 4.4 22:30:23 25° SSW 22:33:37 66° WNW 22:39:02 10° N
Cosmos 1869 3.4 22:30:27 10° NNW 22:34:18 65° W 22:35:09 49° SSW
Cosmos 807 4.1 22:31:34 10° N 22:34:24 74° NNE 22:34:24 74° NNE
ERS-2 4.0 22:35:30 10° NE 22:37:40 18° E 22:37:40 18° E
Terra 4.0 22:35:21 11° SW 22:38:13 17° W 22:41:21 10° NW
Nadezhda 3 Rocket 4.3 22:36:22 33° SSE 22:38:50 53° E 22:44:49 10° NNE
Meteor 1-27 4.5 22:34:42 10° NNW 22:40:11 60° W 22:42:35 33° SSW
ALOS 2 3.0 22:39:48 40° SE 22:41:03 55° ENE 22:45:21 10° N
FALCON 9 DEB 3.1 22:39:22 10° WNW 22:42:17 66° W 22:42:17 66° W
ASTEX 1 4.5 22:38:13 10° N 22:42:53 40° WNW 22:45:49 20° SW
Cosmos 1354 Rocket 4.0 22:41:50 10° NNW 22:47:10 75° ENE 22:49:06 40° SE
BREEZE-M DEB (TANK) 4.0 22:45:18 10° WNW 22:48:36 72° NNE 23:01:38 10° ESE
ADEOS Rocket 3.6 22:45:43 30° SSE 22:49:41 74° ENE 22:57:26 10° N
Cosmos 1825 3.2 22:49:40 30° WSW 22:50:46 39° WNW 22:54:19 10° N
Cosmos 2322 Rocket 2.3 22:48:14 10° NNW 22:53:55 69° ENE 22:56:24 34° SE
Cosmos 1626 Rocket 4.3 22:54:44 30° SW 22:56:22 45° WNW 23:00:34 10° N
Cosmos 1503 Rocket 4.0 22:51:38 10° NNW 22:56:56 76° WSW 22:58:35 44° S
Cosmos 1953 Rocket 4.4 22:58:43 34° ESE 22:59:22 35° E 23:03:25 10° NNE
USA 276 3.2 23:00:52 10° WNW 23:02:49 36° WNW 23:02:49 36° WNW
Cosmos 1777 Rocket 4.1 22:59:41 10° NNW 23:04:59 70° ENE 23:06:53 40° SE
Cosmos 1825 Rocket 3.5 23:08:17 57° SSE 23:08:59 70° E 23:13:19 10° NNE
Cosmos 2333 Rocket 3.3 23:03:40 10° NNW 23:09:04 39° NE 23:12:52 18° ESE
CENTAUR R/B 4.2 23:09:34 14° ESE 23:10:24 14° ESE 23:13:28 10° ENE
Gbstr 26 Del rocket 3.2 23:11:09 51° SE 23:11:09 51° SE 23:15:57 10° ENE
SJ 16-02 1.2 23:07:04 10° NNW 23:11:30 82° WSW 23:12:19 59° S
Cosmos 1340 Rocket 3.1 23:13:04 48° ESE 23:13:14 48° E 23:17:05 10° NNE
Cosmos 2082 Rocket 4.2 23:12:38 10° WSW 23:17:16 25° NW 23:21:55 10° N
H-2A R/B 3.7 23:15:47 10° N 23:19:57 65° WNW 23:20:55 48° SW
USA 267 3.5 23:14:07 10° NE 23:20:37 70° NNW 23:27:07 10° WSW
Cosmos 2058 2.8 23:26:08 62° SSW 23:26:47 81° W 23:30:59 10° N
Cosmos 2221 3.1 23:23:04 10° N 23:27:18 48° ENE 23:28:17 40° ESE
Cosmos 1606 3.0 23:24:16 10° NNW 23:28:02 51° W 23:28:16 51° WSW
Cosmos 2360 Rocket 2.2 23:24:06 10° NNW 23:29:49 84° ENE 23:32:00 40° SSE
Cosmos 1934 Rocket 3.9 23:24:34 10° N 23:30:41 84° E 23:33:06 40° SSE
Cosmos 1782 4.5 23:32:47 10° NNE 23:36:05 24° ENE 23:37:13 21° E
Cosmos 1833 4.1 23:39:57 45° S 23:41:40 72° ESE 23:47:16 10° NNE
Cosmos 44 3.1 23:41:21 58° SSE 23:41:59 67° ESE 23:46:27 10° NE
Meteor 2-2 Rocket 4.4 23:36:25 10° NNW 23:42:26 71° W 23:44:36 41° SSW
CZ-2D R/B 4.4 23:42:44 10° ENE 23:44:16 11° E 23:45:47 10° ESE
Cosmos 1339 Rocket 4.4 23:50:04 40° SSW 23:52:31 85° W 23:58:42 10° N
